Torna al catalogo

SHIYAN 12 02

SY-12 02

AttivoScienzaGEO
NORAD 50322·PAYLOAD·🇨🇳 China

Lanciato Dec 23, 2021 da Wenchang Space Launch Site

Loading…

TLE

AggiornatoSource: Space-Track

Epoca: Sep 14, 2026, 19:16 UTC

1 50322U 21129B   26257.80327807 -.00000151  00000-0  00000+0 0  9991
2 50322   3.8980  78.6371 0004004  94.9351 261.7373  1.00442202 17397

Traccia SHIYAN 12 02 in tempo reale con AllMySat

Download on the App Store